Location: ??????
(55.6130°N, 37.7882°E)
Time: 14:22:39
(UTC+00:00)

Cosmos 1624 Rocket - Visible Passes

Search period start: 18 July 2024 00:00
Search period end: 28 July 2024 00:00
Orbit: 754 x 782 km, 74.0° (Epoch: 18 July)

Date Brightness Start Highest point End Pass type
(mag) Time Alt. Az. Time Alt. Az. Time Alt. Az.
18 Jul 4.8 21:08:08 19° SSE 21:11:17 38° ESE 21:16:07 10° NE visible
18 Jul 4.7 22:48:22 11° SW 22:53:17 48° NW 22:58:25 10° NNE visible
19 Jul 5.3 20:31:32 16° SE 20:34:28 25° E 20:38:42 10° NE visible
19 Jul 4.2 22:11:47 15° SW 22:16:05 69° WNW 22:21:23 10° NNE visible
19 Jul 6.1 23:55:15 10° W 23:59:10 21° NW 00:03:07 10° NNE visible
20 Jul 5.8 19:54:55 11° SE 19:57:44 17° E 20:01:00 10° NE visible
20 Jul 4.0 21:35:10 19° SSW 21:38:59 83° ESE 21:44:17 10° NNE visible
20 Jul 5.7 23:17:17 10° W 23:21:42 27° NW 23:26:10 10° NNE visible
21 Jul 6.1 19:19:58 10° ESE 19:21:05 11° E 19:22:12 10° ENE visible
21 Jul 4.2 20:58:31 20° S 21:01:59 56° ESE 21:07:08 10° NNE visible
21 Jul 5.3 22:39:32 10° WSW 22:44:20 35° NW 22:49:12 10° NNE visible
22 Jul 6.5 00:25:21 10° NW 00:28:03 14° NNW 00:30:47 10° N visible
22 Jul 4.7 20:21:50 18° SSE 20:25:04 37° ESE 20:29:53 10° NE visible
22 Jul 4.8 22:02:03 10° SW 22:07:02 49° NW 22:12:11 10° NNE visible
22 Jul 6.4 23:47:04 10° WNW 23:50:27 17° NNW 23:53:51 10° N visible
23 Jul 5.2 19:45:05 15° SE 19:48:14 25° E 19:52:27 10° NE visible
23 Jul 4.2 21:25:19 14° SW 21:29:51 70° WNW 21:35:09 10° NNE visible
23 Jul 6.2 23:08:56 10° W 23:12:54 21° NW 23:16:54 10° NNE visible
24 Jul 5.7 19:08:19 10° SE 19:11:30 17° E 19:14:43 10° ENE visible
24 Jul 4.0 20:48:33 16° SSW 20:52:45 81° ESE 20:58:03 10° NNE visible
24 Jul 5.8 22:31:00 10° W 22:35:26 27° NW 22:39:56 10° NNE visible
25 Jul 6.7 00:17:23 10° NW 00:19:27 12° NNW 00:21:32 10° N visible
25 Jul 6.0 18:34:01 10° E 18:34:52 10° E 18:35:43 10° E visible
25 Jul 4.2 20:11:42 16° S 20:15:44 54° ESE 20:20:54 10° NE visible
25 Jul 5.4 21:53:14 10° WSW 21:58:04 36° NW 22:02:57 10° NNE visible
25 Jul 6.6 23:39:00 10° NW 23:41:47 14° NNW 23:44:34 10° N visible
26 Jul 4.7 19:34:49 14° SSE 19:38:49 36° ESE 19:43:37 10° NE visible
26 Jul 4.8 21:15:41 10° SW 21:20:47 50° NW 21:25:57 10° NNE visible
26 Jul 6.5 23:00:44 10° WNW 23:04:09 17° NNW 23:07:37 10° NNE visible
27 Jul 5.2 18:57:51 10° SSE 19:02:00 24° E 19:06:10 10° NE visible
27 Jul 4.2 20:38:21 10° SW 20:43:35 72° WNW 20:48:54 10° NNE visible
27 Jul 6.3 22:22:37 10° W 22:26:38 21° NW 22:30:39 10° NNE visible
